Location: Helsinki
(60.1699°N, 24.9384°E)
Time: 09:39:22
(UTC+02:00)

Vanguard 2 Rocket - Pass Details

Date: 30 September 2023
Orbit: 552 x 3312 km, 32.9° (Epoch: 05 December)

Event Time Altitude Azimuth Distance (km) Brightness Sun altitude
Rises 10:33:03 0° 193° (SSW) 6,182 11.6 20.1°
Reaches altitude 10° 10:39:14 10° 176° (S) 5,627 11.9 20.6°
Maximum altitude 10:48:30 17° 144° (SE) 5,511 14.0 21.3°
Drops below altitude 10° 10:58:40 10° 113° (ESE) 6,271 12.3 22.1°
Sets 11:06:14 0° 97° (E) 7,210 12.1 22.6°
